Location: LDNL
(36.4545°S, 141.6685°E)
Time: 22:48:09
(UTC+11:00)

SR - Visible Passes

Search period start: 30 January 2023 00:00
Search period end: 09 February 2023 00:00
Orbit: 581 x 870 km, 66.7° (Epoch: 30 January)

Date Brightness Start Highest point End Pass type
(mag) Time Alt. Az. Time Alt. Az. Time Alt. Az.
30 Jan ? 04:53:22 41° NNW 04:55:04 84° ENE 05:00:18 10° SSE visible
31 Jan ? 04:04:31 36° ENE 04:04:49 36° ENE 04:09:30 10° SE visible
31 Jan ? 05:43:53 15° W 05:46:55 25° SW 05:51:16 10° S visible
01 Feb ? 03:15:36 16° E 03:15:36 16° E 03:17:50 10° ESE visible
01 Feb ? 04:54:58 41° WNW 04:56:11 51° WSW 05:01:19 10° SSE visible
02 Feb ? 04:06:01 71° E 04:06:01 71° E 04:10:55 10° SSE visible
02 Feb ? 05:45:32 10° W 05:48:25 15° SW 05:51:26 10° S visible
03 Feb ? 03:17:01 27° ESE 03:17:01 27° ESE 03:20:02 10° SE visible
03 Feb ? 04:56:22 26° WSW 04:57:27 28° SW 05:02:01 10° S visible
04 Feb ? 02:27:59 10° ESE 02:27:59 10° ESE 02:28:04 10° ESE visible
04 Feb ? 04:07:20 54° SSW 04:07:20 54° SSW 04:11:58 10° SSE visible
05 Feb ? 03:18:15 36° SE 03:18:15 36° SE 03:21:31 10° SSE visible
05 Feb ? 04:57:37 15° WSW 04:58:55 17° SW 05:02:18 10° S visible
06 Feb ? 02:29:10 16° ESE 02:29:10 16° ESE 02:30:31 10° SE visible
06 Feb ? 04:08:31 31° SW 04:08:31 31° SW 04:12:44 10° S visible
07 Feb ? 03:19:22 36° S 03:19:22 36° S 03:22:36 10° SSE visible
08 Feb ? 02:30:12 21° SE 02:30:12 21° SE 02:32:05 10° SE visible
08 Feb ? 04:09:33 19° SW 04:09:33 19° SW 04:13:08 10° S visible
